#timestamp,LO_Frequency,Hit,StdDev 
1683684015.6,286047003.3,P
1683684035.4,286047006.2,P
1683684085.3,286047009.5,E
1683684095.2,286047005.8,N
1683684115.0,286047000.2,P
1683684115.9,286047000.2,N
1683684135.8,286047003.8,N
1683684155.6,286047011.9,Y
1683684175.4,286047012.4,P
1683684195.3,286047011.0,N
1683684215.1,286047011.4,N
1683684235.9,286047008.6,N
1683684255.7,286047006.5,N
1683684275.6,286047005.0,N
1683684295.4,286047003.1,N
1683684315.2,286047000.7,N
1683684335.1,286046999.3,N
1683684336.0,286046999.3,N
1683684355.8,286046999.2,N
1683684375.6,286046997.0,N
1683684395.5,286046997.8,N
1683684415.3,286046999.0,N
1683684435.2,286046998.8,N
1683684455.9,286046998.4,N
1683684475.7,286047002.7,N
1683684495.6,286047000.8,N
1683684515.4,286046998.7,N
1683684535.2,286046997.7,N
1683684555.1,286046997.9,N
1683684556.0,286046997.9,N
1683684575.8,286046997.0,N
1683684595.7,286047001.9,N
1683684615.5,286047002.8,N
1683684635.3,286046999.8,N
1683684655.2,286047008.0,N
1683684675.9,286047006.3,N
1683684695.7,286047006.1,N
1683684715.6,286047008.6,N
1683684735.4,286047007.9,N
1683684755.2,286047010.2,N
1683684775.1,286047007.8,N
1683684776.0,286047007.8,N
1683684795.8,286047005.3,N
1683684815.7,286047002.4,N
1683684835.5,286047000.2,N
1683684855.3,286047000.7,N
1683684875.2,286047004.0,N
1683684895.0,286047005.9,N
1683684895.9,286047005.9,N
1683684915.8,286047006.5,N
1683684935.6,286047007.1,N
1683684955.4,286047002.9,N
1683684975.3,286047005.9,N
1683684995.1,286047003.5,N
1683685015.9,286047003.3,N
1683685035.7,286047004.4,N
1683685055.5,286047002.5,N
1683685075.4,286047002.3,N
1683685095.2,286047006.2,N
1683685115.0,286047008.9,N
1683685115.9,286047008.9,N
1683685135.8,286047007.2,N
1683685155.6,286047010.6,Y
1683685175.5,286047001.5,P
1683685195.3,286047005.8,P
1683685215.1,286047005.0,N
1683685235.9,286047006.6,Y
1683685255.7,286047007.5,P
1683685275.6,286047005.8,P
1683685295.4,286047002.7,N
1683685315.2,286047000.3,N
1683685335.1,286047000.4,N
1683685336.0,286047000.4,N
1683685355.8,286047002.4,N
1683685375.6,286047006.8,N
1683685395.5,286047002.5,N
1683685415.3,286047002.3,N
1683685435.2,286046998.4,N
1683685455.9,286046999.4,N
1683685475.7,286046997.6,N
1683685495.6,286046995.4,N
1683685515.4,286047001.2,N
1683685535.2,286046998.2,N
1683685555.1,286047000.8,N
1683685556.0,286047000.8,N
1683685575.8,286047003.0,N
1683685595.6,286047004.1,N
1683685615.5,286047003.6,N
1683685635.3,286047005.6,N
1683685655.2,286047007.4,N
1683685675.9,286047008.6,N
1683685695.7,286047009.3,N
1683685715.6,286047012.1,Y
1683685735.4,286047008.2,P
1683685755.3,286047014.0,P
1683685775.1,286047007.8,N
1683685776.0,286047007.8,N
1683685795.8,286047005.6,N
1683685815.7,286047003.0,N
1683685835.5,286047008.6,N
1683685855.3,286047013.8,Y
1683685875.2,286047005.2,P
1683685895.0,286047003.6,P
1683685895.9,286047003.6,N
1683685915.8,286047006.9,Y
1683685935.6,286047006.2,P
1683685955.4,286047008.4,P
1683685975.3,286047015.0,P
1683685995.1,286047012.2,Y
1683686015.9,286047004.0,P
1683686035.7,286047010.6,P
1683686055.5,286047008.5,P
1683686075.4,286047008.7,Y
1683686095.2,286046994.9,P
1683686115.0,286046997.3,N
1683686115.9,286046997.3,N
1683686135.8,286046999.0,N
1683686155.6,286047002.2,N
1683686175.5,286047004.3,N
1683686195.3,286047000.1,N
1683686215.1,286047000.2,N
1683686235.9,286046997.2,N
1683686255.7,286046990.0,N
1683686275.5,286046983.6,Y
1683686295.4,286046986.5,P
1683686315.2,286046980.5,P
1683686335.1,286046976.9,N
1683686336.0,286046976.9,N
1683686355.8,286046973.3,Y
1683686375.6,286046986.6,P
1683686395.5,286046984.0,P
1683686415.3,286046986.2,P
1683686435.1,286046990.9,Y
1683686455.9,286047012.2,P
1683686475.7,286047010.6,N
1683686495.6,286047010.1,N
1683686515.4,286047013.5,N
1683686535.2,286047007.1,N
1683686555.1,286047001.9,N
1683686556.0,286047001.9,N
1683686575.8,286046998.1,N
1683686595.6,286047007.5,N
1683686615.5,286047009.9,N
1683686635.3,286047010.9,N
1683686655.2,286047018.6,N
1683686675.0,286047017.1,N
1683686675.9,286047017.1,N
1683686695.8,286047018.8,N
1683686715.6,286047020.0,N
1683686735.4,286047016.1,N
1683686755.3,286047015.3,N
1683686775.1,286047011.2,N
1683686795.9,286047010.7,N
1683686815.7,286047013.4,N
1683686835.5,286047010.9,N
1683686855.4,286047013.2,N
1683686875.2,286047020.1,N
1683686895.1,286047019.1,N
1683686896.0,286047019.1,N
1683686915.8,286047017.0,N
1683686935.6,286047014.8,N
1683686955.5,286047015.8,N
1683686975.3,286047006.4,N
1683686995.1,286047002.2,N
1683687015.9,286047001.6,N
1683687035.7,286047000.1,N
1683687055.6,286047003.3,N
1683687075.4,286047006.2,N
1683687095.2,286047011.8,N
1683687115.1,286047017.0,N
1683687116.0,286047017.0,N
1683687135.8,286047021.4,Y
1683687155.6,286047005.0,P
1683687175.5,286047008.8,N
1683687195.3,286047006.2,N
1683687215.2,286047015.4,Y
1683687235.9,286047002.8,P
1683687255.7,286047003.1,N
1683687275.6,286047003.8,N
1683687295.4,286047001.1,N
1683687315.2,286046995.5,N
1683687335.1,286046994.2,N
1683687355.8,286046987.6,N
1683687375.7,286046982.0,N
1683687395.5,286046973.0,Y
1683687415.4,286046972.5,P
1683687435.2,286046973.5,N
1683687455.1,286046973.1,N
1683687456.0,286046973.1,N
1683687475.8,286046971.2,N
1683687495.6,286046973.1,N
1683687515.5,286046976.2,N
1683687535.3,286046981.9,N
1683687555.1,286046981.0,N
1683687575.9,286046986.6,N
1683687595.7,286046989.9,N
